User: anonymous   Login
Location: Toronto
(43.6672°N, 79.4170°W)
Time: 19:40:29
(UTC-05:00)
Language:

ISS - Orbit

View from above orbital plane
View from above orbital plane
View from above satellite
View from above satellite

Ground track
Ground track

The orbit data is extracted from the following two-line orbital elements,

1 25544U 98067A   17052.09723046  .00016717  00000-0  10270-3 0  9058
2 25544  51.6387 257.0177 0006419 215.8077 144.2647 15.54375448  3693
Epoch (UTC): 21 February 2017 02:20:00
Eccentricity: 0.0006419
inclination: 51.6387°
perigee height: 399 km
apogee height: 408 km
right ascension of ascending node: 257.0177°
argument of perigee: 215.8077°
revolutions per day: 15.54375448
mean anomaly at epoch: 144.2647°
orbit number at epoch: 369

The dashed part of the orbit path shows where the satellite is in the earth's shadow,  

DLR